Weather History for Point Mugu, CA

Change the Weather History Date:

Thursday, September 13, 2012

  Actual Average Record
Temperature  
Mean Temperature 67 °F -  
Max Temperature 72 °F 71 °F 84 °F (2014)
Min Temperature 62 °F 57 °F 51 °F (2001)
Cooling Degree Days 2    
Growing Degree Days 17 (Base 50)    
Moisture  
Dew Point 63 °F    
Average Humidity 95    
Maximum Humidity 100    
Minimum Humidity 76    
Precipitation  
Precipitation 0.00 in - - ()
Sea Level Pressure  
Sea Level Pressure 30.01 in    
Wind  
Wind Speed 4 mph (WNW)    
Max Wind Speed 12 mph    
Max Gust Speed 18 mph    
Visibility 3 miles    
Events Fog    
Averages and records for this station are not official NWS values.
T = Trace of Precipitation, MM = Missing Value Source: NWS Daily Summary

Daily Weather History Graph

Daily Weather History Graph

Search for Another Location

Airport:

Trip Planner

Search our weather history database for the weather conditions in past years. The results will help you decide how hot, cold, wet, or windy it might be!

Date:

Astronomy

Sep. 13, 2012 Rise Set
Actual Time 6:38 AM PDT 7:05 PM PDT
Civil Twilight 6:13 AM PDT 7:30 PM PDT
Nautical Twilight 5:44 AM PDT 7:59 PM PDT
Astronomical Twilight 5:14 AM PDT 8:29 PM PDT
Moon 4:08 AM PDT (9/13) 5:27 PM PDT (9/13)
Length of Visible Light 13h 16m
Length of Day
12h 26m
Waning Crescent, 7% of the Moon is Illuminated
Sep 13
Waning Crescent
Sep 15
New
Sep 22
First Quarter
Sep 29
Full
Oct 8
Last Quarter

Hourly Weather History & Observations

Time (PDT) Temp. Dew Point Humidity Pressure Visibility Wind Dir Wind Speed Gust Speed Precip Events Conditions
12:54 AM 64.0 °F 64.0 °F 100% 30.02 in 4.0 mi Calm Calm - N/A   Overcast
1:44 AM 64.4 °F 64.4 °F 100% 30.01 in 2.0 mi WNW 4.6 mph - N/A   Overcast
1:54 AM 63.0 °F 63.0 °F 100% 30.02 in 1.5 mi WNW 3.5 mph - N/A   Overcast
2:16 AM 62.6 °F 62.6 °F 100% 30.01 in 1.0 mi WNW 5.8 mph - N/A   Overcast
2:26 AM 62.6 °F 62.6 °F 100% 30.01 in 1.5 mi WNW 4.6 mph - N/A   Overcast
2:54 AM 63.0 °F 63.0 °F 100% 30.01 in 1.0 mi WNW 6.9 mph - N/A   Overcast
3:08 AM 62.6 °F 62.6 °F 100% 30.00 in 0.8 mi WNW 3.5 mph - N/A   Mist
3:54 AM 63.0 °F 63.0 °F 100% 30.00 in 0.8 mi WNW 6.9 mph - N/A   Mist
4:39 AM 62.6 °F 62.6 °F 100% 30.00 in 1.0 mi WNW 4.6 mph - N/A   Mist
4:54 AM 63.0 °F 63.0 °F 100% 30.01 in 1.0 mi WNW 6.9 mph - N/A   Mist
5:06 AM 62.6 °F 62.6 °F 100% 30.00 in 0.8 mi NW 5.8 mph - N/A   Mist
5:32 AM 62.6 °F 62.6 °F 100% 30.01 in 1.2 mi WNW 6.9 mph - N/A   Overcast
5:54 AM 62.1 °F 62.1 °F 100% 30.02 in 0.5 mi WNW 5.8 mph - N/A Fog Fog
5:59 AM 62.6 °F 62.6 °F 100% 30.02 in 1.0 mi WNW 5.8 mph - N/A   Overcast
6:42 AM 62.6 °F 62.6 °F 100% 30.03 in 1.2 mi WNW 6.9 mph - N/A   Overcast
6:54 AM 62.1 °F 62.1 °F 100% 30.04 in 2.5 mi WNW 5.8 mph - N/A   Overcast
7:01 AM 62.6 °F 62.6 °F 100% 30.03 in 1.0 mi NW 5.8 mph - N/A   Overcast
7:39 AM 62.6 °F 62.6 °F 100% 30.03 in 0.5 mi WNW 3.5 mph - N/A Fog Fog
7:49 AM 62.6 °F 62.6 °F 100% 30.03 in 0.2 mi NW 3.5 mph - N/A Fog Fog
7:54 AM 62.1 °F 62.1 °F 100% 30.04 in 0.2 mi Calm Calm - N/A Fog Fog
8:19 AM 62.6 °F 62.6 °F 100% 30.04 in 0.2 mi Calm Calm - N/A Fog Fog
8:45 AM 62.6 °F 62.6 °F 100% 30.04 in 0.8 mi Calm Calm - N/A   Overcast
8:54 AM 63.0 °F 63.0 °F 100% 30.04 in 1.0 mi Calm Calm - N/A   Overcast
9:06 AM 62.6 °F 62.6 °F 100% 30.04 in 1.5 mi Calm Calm - N/A   Overcast
9:33 AM 64.4 °F 64.4 °F 100% 30.04 in 2.0 mi Calm Calm - N/A   Overcast
9:54 AM 66.0 °F 64.9 °F 96% 30.05 in 2.5 mi Calm Calm - N/A   Overcast
10:54 AM 66.9 °F 64.0 °F 90% 30.04 in 4.0 mi WSW 8.1 mph - N/A   Overcast
11:54 AM 68.0 °F 64.0 °F 87% 30.04 in 5.0 mi West 6.9 mph - N/A   Haze
12:10 PM 69.8 °F 64.4 °F 83% 30.03 in 7.0 mi West 8.1 mph - N/A   Scattered Clouds
12:54 PM 70.0 °F 64.0 °F 81% 30.02 in 7.0 mi West 9.2 mph - N/A   Scattered Clouds
1:54 PM 71.1 °F 64.0 °F 78% 30.00 in 7.0 mi West 10.4 mph - N/A   Partly Cloudy
2:54 PM 71.1 °F 64.0 °F 78% 29.97 in 7.0 mi West 11.5 mph - N/A   Partly Cloudy
3:54 PM 72.0 °F 64.0 °F 76% 29.96 in 7.0 mi West 9.2 mph 18.4 mph N/A   Scattered Clouds
4:54 PM 71.1 °F 64.0 °F 78% 29.95 in 7.0 mi NW 9.2 mph - N/A   Scattered Clouds
5:54 PM 69.1 °F 64.0 °F 84% 29.95 in 7.0 mi WNW 8.1 mph - N/A   Partly Cloudy
6:54 PM 66.0 °F 63.0 °F 90% 29.95 in 7.0 mi NW 6.9 mph - N/A   Partly Cloudy
7:54 PM 64.9 °F 63.0 °F 93% 29.96 in 7.0 mi NNW 4.6 mph - N/A   Partly Cloudy
8:54 PM 64.0 °F 63.0 °F 96% 29.97 in 7.0 mi NW 8.1 mph - N/A   Clear
9:54 PM 64.0 °F 63.0 °F 96% 29.98 in 7.0 mi NNW 4.6 mph - N/A   Clear
10:54 PM 63.0 °F 62.1 °F 97% 29.97 in 6.0 mi NNW 4.6 mph - N/A   Clear
11:54 PM 63.0 °F 62.1 °F 97% 29.97 in 6.0 mi NNW 5.8 mph - N/A   Clear